Location: Pianadetto
(44.4000°N, 10.1000°E)
Time: 06:57:33
(UTC+00:00)

ATLAS 5 CENTAUR R/B - Visible Passes

Search period start: 06 October 2022 00:00
Search period end: 16 October 2022 00:00
Orbit: 353 x 13863 km, 60.9° (Epoch: 05 October)

Date Brightness Start Highest point End Pass type
(mag) Time Alt. Az. Time Alt. Az. Time Alt. Az.
06 Oct 6.5 04:44:58 10° W 06:00:46 51° N 06:13:47 10° ENE visible
06 Oct 8.1 22:00:24 33° SE 22:37:52 43° E 23:15:05 10° NE visible
07 Oct 7.2 02:20:45 35° SW 03:22:59 71° NW 03:47:00 10° NE visible
07 Oct 8.3 19:48:52 10° E 20:16:18 14° ENE 20:35:49 10° NE visible
07 Oct 7.7 22:55:33 10° S 00:45:32 76° ESE 01:20:10 10° NE visible
08 Oct 6.6 04:22:44 12° W 05:36:55 52° NNW 05:50:41 10° ENE visible
08 Oct 8.1 21:43:48 34° ESE 22:14:32 41° E 22:51:37 10° NE visible
09 Oct 7.3 02:04:02 40° SW 02:58:45 73° NW 03:23:48 10° NE visible
09 Oct 8.3 19:34:57 10° E 19:53:46 12° ENE 20:08:29 10° ENE visible
09 Oct 7.7 22:32:32 10° S 00:21:27 73° ESE 00:56:50 10° NE visible
10 Oct 6.7 04:05:27 16° W 05:12:50 53° NNW 05:27:23 10° ENE visible
10 Oct 8.1 21:26:09 34° ESE 21:51:04 38° E 22:27:53 10° NE visible
11 Oct 7.3 01:46:19 44° SW 02:34:18 75° NW 03:00:25 10° NE visible
11 Oct 8.3 19:27:36 10° ENE 19:31:08 10° ENE 19:34:30 10° ENE visible
11 Oct 7.8 22:09:30 10° S 23:57:11 70° ESE 00:33:18 10° NE visible
12 Oct 6.7 03:47:14 20° W 04:48:30 54° NNW 05:03:54 10° ENE visible
12 Oct 8.1 21:07:39 33° ESE 21:27:29 36° E 22:03:55 10° NE visible
13 Oct 7.3 00:14:33 10° SSW 02:09:39 78° NW 02:36:51 10° NE visible
13 Oct 7.8 21:46:28 10° S 23:32:48 67° ESE 00:09:33 10° NE visible
14 Oct 6.8 03:28:12 24° W 04:23:55 55° NNW 04:40:14 10° ENE visible
14 Oct 8.0 20:48:21 32° ESE 21:03:48 34° E 21:39:41 10° NE visible
14 Oct 7.4 23:49:26 10° SSW 01:44:47 80° NW 02:13:05 10° NE visible
15 Oct 7.8 21:23:25 10° SSE 23:08:15 65° ESE 23:45:36 10° NE visible
